Regional Weather Roundup
Issued by NWS Grand Forks, ND

Home | Current Version | Previous Version | Graphics & Text | Print | Product List | Glossary On
Versions: 1 2 3 4 5 6 7 8 9 10 11 12 13 14 15 16 17 18 19 20 21 22 23 24 25 26 27 28 29 30 31 32 33 34 35 36 37 38 39 40 41 42 43 44 45 46 47 48 49 50
000
ASUS43 KFGF 281710
RWRFGF
PRAIRIE TO PINES  WEATHER ROUNDUP
NATIONAL WEATHER SERVICE EASTERN NORTH DAKOTA/GRAND FORKS ND
1200 PM CDT MON JUL 28 2014

 **SATELLITE DATA USED TO AUGMENT SKY COVER AT AUTOMATED STATIONS**
 *****  WEATHER ACROSS EASTERN NORTH DAKOTA  *****

CITY           SKY/WX    TMP DP  RH WIND       PRES   REMARKS
GRAND FORKS    MOSUNNY   72  56  57 NW7G16    30.26F
GRAND FRKS AFB MOSUNNY   71  57  60 NW8       30.28F
GRAND FRKS NWS   N/A     72 N/A N/A NW5         N/A
DEVILS LAKE    PTSUNNY   66  52  59 N10       30.29F
FARGO          CLOUDY    70  57  63 NW9       30.27S
WAHPETON ARPT  CLOUDY    68  52  56 N9        30.28S
$$

 ***** WEATHER ACROSS CENTRAL AND WESTERN NORTH DAKOTA  *****

CITY           SKY/WX    TMP DP  RH WIND       PRES   REMARKS
BISMARCK       MOSUNNY   68  52  56 W6        30.33F
MINOT          SUNNY     70  52  52 N6        30.31F
JAMESTOWN      PTSUNNY   67  51  56 N7        30.30F
MINOT AFB      MOSUNNY   69  53  57 VRB2      30.31S
GARRISON         N/A     69  54  58 VRB3      30.33S
WILLISTON      SUNNY     75  53  46 VRB3      30.31S
DICKINSON      SUNNY     71  53  52 E7        30.32F
HETTINGER      SUNNY     71  52  50 SE6       30.34F
$$

 *****  OTHER AIRPORT OBSERVATIONS IN OUR AREA  *****

CITY           SKY/WX    TMP DP  RH WIND       PRES   REMARKS
WALHALLA       FAIR      70  55  60 N13         N/A
GRAFTON AIRPOR FAIR      70  55  60 N12       30.27F
VALLEY CITY AR PTSUNNY   68  50  52 N9        30.30S
CANDO          PTSUNNY   68  54  60 N7        30.31F
CAVALIER APRT  FAIR      70  54  56 N12       30.28S
GWINNER        PTSUNNY   70  52  52 NW8       30.30S
SHEYENNE NWR     N/A     71  48  43 N7        29.95S
ROLLA            N/A     66  52  59 N8        30.32F
 ***** THE ABOVE OBSERVATIONS ARE NON NWS ARE NOT QUALITY
       CONTROLLED AND MAY MIS-REPORT RAIN FOR SNOW...
$$

  *****  WEATHER ACROSS NORTHERN MINNESOTA  *****

CITY           SKY/WX    TMP DP  RH WIND       PRES   REMARKS
FLAG ISLAND    SUNNY     70  54  56 NW12      30.21F
WARROAD        MOSUNNY   70  57  64 NW10      30.24F
ROSEAU         SUNNY     70  57  64 N8        30.24F
HALLOCK        MOSUNNY   70  57  64 NW10      30.26F
THF RVR FALLS  SUNNY     70  52  52 NW10      30.26F
BAUDETTE       SUNNY     71  54  54 NW12      30.23F
WASKISH        MOSUNNY   72  55  56 CALM      30.22F
CROOKSTON      SUNNY     70  57  64 N12       30.27S
$$
  *****  WEATHER ACROSS CENTRAL AND WEST MINNESOTA  *****

CITY           SKY/WX    TMP DP  RH WIND       PRES   REMARKS
FOSSTON        PTSUNNY   66  54  63 NW12      30.27S
BEMIDJI        PTSUNNY   69  54  58 N8        30.24S
PARK RAPIDS    MOSUNNY   71  53  52 NW15      30.24S
ELBOW LAKE     CLOUDY    65  58  77 NW8       30.27S
WADENA         MOSUNNY   70  55  60 NW6       30.24S
DETROIT LAKES  MOSUNNY   68  55  64 N12       30.28S
MOORHEAD       PTSUNNY   70  59  68 NW9       30.27F
FERGUS FALLS   CLOUDY    66  54  63 N7        30.27S
MORRIS MN      PTSUNNY   66  57  72 NW9       30.26S
STAPLES        PTSUNNY   70  48  46 NW10      30.24S
$$
  *****  WEATHER ELSEWHERE ACROSS MINNESOTA  *****

CITY           SKY/WX    TMP DP  RH WIND       PRES   REMARKS
DULUTH         MOSUNNY   71  53  52 NW13G20   30.18S
INTRNTL FALLS  SUNNY     72  54  53 NW9       30.19F
ELY            MOSUNNY   68  50  52 NW12G20   30.16S
CLOQUET        PTSUNNY   68  48  49 NW8       30.19S
WHEATON        PTSUNNY   68  55  64 NW8       30.29S
BRAINERD       PTSUNNY   70  52  52 N10       30.22S
HIBBING        MOSUNNY   70  51  51 NW15      30.20S
ALEXANDRIA     SUNNY     69  55  60 NW14      30.26F
SAINT CLOUD    MOSUNNY   75  52  44 N9        30.21F
MINNEAPOLIS    PTSUNNY   72  51  47 N9        30.20F
$$

  *****  WEATHER ACROSS SOUTH DAKOTA  *****

CITY           SKY/WX    TMP DP  RH WIND       PRES   REMARKS
SIOUX FALLS    PTSUNNY   69  58  67 NW16      30.27S
BROOKINGS      NOT AVBL
WATERTOWN      PTSUNNY   66  51  58 N13       30.28F
HURON          PTSUNNY   69  54  58 N12       30.29F
SISSETON         N/A     71  55  56 N9        30.27F
ABERDEEN       MOSUNNY   69  51  52 N10       30.30F
MITCHELL       MOSUNNY   69  55  60 N9        30.30F
PIERRE         SUNNY     72  53  51 N9        30.30F
MOBRIDGE       PTSUNNY   69  53  56 VRB3      30.31F
RAPID CITY     SUNNY     73  57  57 SE10      30.33F
$$

  *****  SOME WEATHER IN NEARBY STATES *****

CITY           SKY/WX    TMP DP  RH WIND       PRES   REMARKS
GLASGOW MT     SUNNY     79  51  37 CALM      30.26F
GREAT FALLS MT MOSUNNY   79  45  29 N7        30.24F
CHEYENNE WY    SUNNY     76  54  46 S8G16     30.41S
SCOTTSBLUFF NE SUNNY     74  56  53 E9        30.34S
OMAHA NE       PTSUNNY   71  56  58 N10       30.27S
DES MOINES IA  PTSUNNY   75  53  46 E6        30.22R
DAVENPORT IA   SUNNY     70  51  51 N16       30.17R
CHICAGO IL     MOSUNNY   67  42  40 N16G26    30.09R
EAU CLAIRE WI  CLOUDY    72  51  47 NW9       30.17S
LA CROSSE WI   PTSUNNY   74  49  41 NW10      30.16F
$$

  *****  SOME NATIONAL WEATHER *****

CITY           SKY/WX    TMP DP  RH WIND       PRES   REMARKS
LA GUARDIA NY  CLOUDY    80  62  54 SW9G18    29.52F
RALEIGH NC     MOSUNNY   84  62  47 NW9G21    29.81S
ATLANTA GA     MOSUNNY   88  70  55 NW16G25   29.95F HX  93
NEW ORLEANS LA PTSUNNY   91  74  57 W12       30.07F HX 100
OKLAHOMA CITY  CLOUDY    82  60  47 NE7       30.28R
ALBUQUERQUE NM CLOUDY    77  54  44 S5G22     30.41S
SALT LAKE CITY MOSUNNY   88  48  25 S13       30.19F
LOS ANGELES CA PTSUNNY   72  64  76 W9        30.08R
BOISE ID       PTSUNNY   83  42  23 VRB3      30.09R
SEATTLE WA     SUNNY     74  22  14 VRB6      30.13F
$$

*** WEATHER ACROSS MANITOBA...SASKATCHEWAN AND ONTARIO ***
                ***ONTARIO***

CITY           SKY/WX    TMP DP  RH WIND       PRES   REMARKS
GERALDTON      CLOUDY    66  55  68 NW9       30.00S
THUNDER BAY    CLOUDY    68  57  68 NW8       30.06F
SIOUX LOOKOUT  CLOUDY    70  54  56 N15G22    30.14S
TORONTO        PTSUNNY   68  54  60 NW20      29.76R
BIG TROUT LK   LGT RAIN  63  57  82 NW5       30.02F
PICKLE LAKE    CLOUDY    66  52  59 NW7       30.09R
DRYDEN         PTSUNNY   72  54  53 N12G17    30.17S
KENORA         PTSUNNY   72  54  53 NW8       30.22F
$$
                *** MANITOBA***

CITY           SKY/WX    TMP DP  RH WIND       PRES   REMARKS
BRANDON        PTSUNNY   72  54  53 N6        30.31F
DAUPHIN        SUNNY     70  52  52 W3        30.29F
ISLAND LAKE    MOSUNNY   77  52  41 W12       30.15F
PILOT MOUND      N/A     66  54  63 N8          N/A
THE PAS        MOSUNNY   72  50  46 NW3       30.26F
THOMPSON       MOSUNNY   77  52  41 NW10      30.17F
WINNIPEG       MOSUNNY   72  52  49 NW12      30.27F
LYNN LAKE      SUNNY     73  46  38 SW7       30.20F
CHURCHILL      MOSUNNY   59  54  82 N9        30.09R
GILLAM         MOSUNNY   75  54  46 W13G18    30.08F
$$
                ***SASKATCHEWAN***

CITY           SKY/WX    TMP DP  RH WIND       PRES   REMARKS
ESTEVAN        MOSUNNY   70  57  64 SW2       30.32S
KINDERSLEY     NOT AVBL
LLOYDMINSTER   SUNNY     73  57  56 S6        30.26F
PRINCE ALBERT  MOSUNNY   72  59  64 S6        30.27F
REGINA         SUNNY     72  59  64 SE5       30.29F
YORKTON        PTSUNNY   68  54  60 VRB3      30.30F
N. BATTLEFORD    N/A     72  61  68 W5        30.29S
LA RONGE       MOSUNNY   72  59  64 S7        30.25F
SASKATOON      MOSUNNY   73  61  64 W5        30.29S
SWIFT CURRENT  SUNNY     75  48  38 VRB3      30.28F
$$
NOTE: THESE ARE AUTOMATED STATIONS WITH LIMITED QUALITY CONTROL
      "FAIR" INDICATES FEW OR NO CLOUDS BELOW 12,000 FEET WITH NO
      SIGNIFICANT WEATHER AND/OR OBSTRUCTIONS TO VISIBILITY.
      SKY/WX - SKY CONDITION AND SIGNIFICANT WEATHER.
      TMP - AIR TEMPERATURE.    DP   - DEWPOINT TEMPERATURE.
      RH  - RELATIVE HUMIDITY.  PRES - PRESSURE.
      HX  - HEAT INDEX.         WCI  - WIND CHILL INDEX.
$



USA.gov is the U.S. government's official web portal to all federal, state and local government web resources and services.